Retour au catalogue

STARLINK-37536

ActifCommunicationsVLEO
NORAD 69508·PAYLOAD·🇺🇸 United States

Lancé Jun 12, 2026 depuis Cape Canaveral Space Force Station

Loading…

Prochains Passages (prochaines 24 heures)

TLE

FraisSource: CelesTrak SupGP

Époque: Sep 14, 2026, 23:34 UTC

1 69508C 26133A   26257.98243056  .00033323  00000+0  98438-3 0  2577
2 69508  53.1575 255.8384 0001279  94.5024 228.3291 15.34378604    13

Suivez STARLINK-37536 en temps réel avec AllMySat

Download on the App Store